• Join FlightAware (Why Join?)
  • Login
  • US Flag 
05:54AM EDT


 

Airport Tracker/Info


-or-


 

Live Flight TrackerFlight Track Log ✈ FSR411 ✈ 23-Aug-2013 ✈ KLNK - KMDW

Flight Track Log - Related Links

Times and Time Zones

All times are in EDT time to prevent confusion due to time zone crossing. See the FSR411 flight status page for this flight to view local times or setup timezone preferences in your user account.

Time Position Orientation Groundspeed Altitude Reporting Facility
EDT Latitude Longitude Course Direction KTS MPH feet Rate Location/Type
10:11AM 40.8233 -96.7419 124° Southeast 196 226 2,000  Level Minneapolis Center
10:12AM 40.7925 -96.6819 124° Southeast 247 284 4,700 2,880 Climbing Minneapolis Center
10:12AM 40.8039 -96.6350 72° East 266 306 6,600 3,060 Climbing Minneapolis Center
10:13AM 40.8150 -96.5367 81° East 270 311 9,600 2,880 Climbing Minneapolis Center
10:15AM 40.8225 -96.4233 85° East 301 346 12,600 2,880 Climbing Minneapolis Center
10:16AM 40.8328 -96.2936 84° East 346 398 15,600 2,460 Climbing Minneapolis Center
10:17AM 40.8433 -96.1617 84° East 358 412 17,800 2,220 Climbing Minneapolis Center
10:18AM 40.8539 -96.0292 84° East 362 417 20,300 2,700 Climbing Minneapolis Center
10:19AM 40.8658 -95.8597 85° East 374 430 23,500 2,460 Climbing Minneapolis Center
10:20AM 40.8769 -95.7086 84° East 401 461 25,500 1,740 Climbing Minneapolis Center
10:21AM 40.8858 -95.5836 85° East 419 482 27,100 1,920 Climbing Minneapolis Center
10:22AM 40.9003 -95.3917 84° East 435 501 29,500 1,980 Climbing Minneapolis Center
10:23AM 40.9114 -95.2328 85° East 437 503 31,200 1,620 Climbing Minneapolis Center
10:24AM 40.9242 -95.0392 85° East 440 506 32,900 1,500 Climbing Minneapolis Center
10:25AM 40.9358 -94.8753 85° East 446 513 34,400 1,260 Climbing Minneapolis Center
10:26AM 40.9450 -94.7111 86° East 447 514 35,600 1,080 Climbing Minneapolis Center
10:27AM 40.9567 -94.5375 85° East 453 521 36,700 960 Climbing Minneapolis Center
10:28AM 40.9664 -94.3689 86° East 460 529 37,700 900 Climbing Minneapolis Center
10:29AM 40.9761 -94.1992 86° East 464 534 38,600 720 Climbing Minneapolis Center
10:30AM 40.9869 -94.0275 85° East 469 540 39,300 720 Climbing Minneapolis Center
10:31AM 40.9992 -93.8200 85° East 473 544 40,300 720 Climbing Minneapolis Center
10:32AM 41.0108 -93.6139 86° East 472 543 41,000 300 Climbing Minneapolis Center
10:33AM 41.0200 -93.4381 86° East 477 549 41,000 -180 Level Minneapolis Center
10:34AM 41.0300 -93.2583 86° East 483 556 40,700 -540 Descending Minneapolis Center
10:35AM 41.0389 -93.0806 86° East 487 560 39,900 -840 Descending Minneapolis Center
10:37AM 41.0492 -92.8642 86° East 492 566 39,000 -840 Descending Chicago Center
10:38AM 41.0575 -92.6897 86° East 479 551 38,200 -780 Descending Chicago Center
10:39AM 41.0647 -92.5156 87° East 475 547 37,400 -840 Descending Chicago Center
10:40AM 41.0736 -92.3425 86° East 475 547 36,500 -1,020 Descending Chicago Center
10:41AM 41.0822 -92.1342 87° East 474 545 35,300 -1,080 Descending Chicago Center
10:42AM 41.0889 -91.9642 87° East 467 537 34,300 -960 Descending Chicago Center
10:43AM 41.0961 -91.7933 87° East 467 537 33,300 -1,140 Descending Chicago Center
10:44AM 41.1022 -91.6289 87° East 469 540 32,000 -1,500 Descending Chicago Center
10:45AM 41.1097 -91.4258 87° East 460 529 30,300 -1,500 Descending Chicago Center
10:46AM 41.1153 -91.2611 87° East 448 516 28,900 -1,320 Descending Chicago Center
10:47AM 41.1206 -91.1017 87° East 437 503 27,600 -1,440 Descending Chicago Center
10:48AM 41.1253 -90.9433 88° East 431 496 26,000 -1,500 Descending Chicago Center
10:49AM 41.1303 -90.7897 87° East 420 483 24,500 -1,380 Descending Chicago Center
10:50AM 41.1344 -90.6367 88° East 416 479 23,200 -1,260 Descending Chicago Center
10:51AM 41.1389 -90.4917 88° East 400 460 22,000 -1,260 Descending Chicago Center
10:52AM 41.1439 -90.3189 88° East 388 447 20,600 -1,260 Descending Chicago Center
10:53AM 41.1467 -90.1767 88° East 384 442 19,500 -1,200 Descending Chicago Center
10:54AM 41.1511 -90.0239 88° East 402 463 18,200 -1,140 Descending Chicago Center
10:55AM 41.1544 -89.8717 88° East 408 470 17,200 -1,140 Descending Chicago Center
10:56AM 41.1578 -89.7253 88° East 399 459 15,900 -1,080 Descending Chicago Center
10:57AM 41.1611 -89.5786 88° East 396 456 15,000 -480 Descending Chicago Center
10:58AM 41.1714 -89.4358 84° East 390 449 15,000  Level Chicago Center
10:59AM 41.1819 -89.2633 85° East 390 449 15,000  Level Chicago Center
11:00AM 41.1911 -89.1275 85° East 393 452 15,000 -60 Level Chicago Center
11:01AM 41.2181 -88.9933 75° East 381 438 14,900 -1,200 Descending Chicago Center
11:02AM 41.2875 -88.8553 56° Northeast 373 429 12,600 -2,220 Descending Chicago Center
11:03AM 41.3386 -88.7497 57° Northeast 349 402 10,400 -1,980 Descending Chicago Center
11:04AM 41.3847 -88.6572 56° Northeast 308 354 8,600 -1,680 Descending Chicago Center
11:05AM 41.4244 -88.5717 58° Northeast 280 322 7,000 -1,260 Descending Chicago Center
11:07AM 41.4647 -88.4881 57° Northeast 272 313 6,000 -540 Descending Chicago Center
11:08AM 41.5044 -88.4039 58° Northeast 269 310 6,000  Level Chicago Center
11:09AM 41.5317 -88.2936 72° East 275 316 6,000 -120 Level Chicago Center
11:10AM 41.5328 -88.1964 89° East 263 303 5,800 -600 Descending Chicago Center
11:11AM 41.5406 -88.1156 83° East 229 264 4,800 -900 Descending Chicago Center
11:12AM 41.5656 -88.0431 65° Northeast 218 251 4,000 -420 Descending Chicago Center
11:13AM 41.5994 -87.9861 51° Northeast 205 236 4,000  Level Chicago Center
11:14AM 41.6339 -87.9422 44° Northeast 187 215 4,000 -120 Level Chicago Center
11:15AM 41.6617 -87.9081 43° Northeast 155 178 3,800 -540 Descending Chicago Center
11:16AM 41.6961 -87.8650 43° Northeast 144 166 2,900 -840 Descending Chicago Center
11:17AM 41.7256 -87.8283 43° Northeast 144 166 2,100 -780 Descending Chicago Center
11:18AM 41.7525 -87.7942 43° Northeast 141 162 1,400 -600 Descending Chicago Center
11:19AM 41.7769 -87.7625 44° Northeast 130 150 900 -540 Descending Chicago Center
11:21AM 41.7833 -87.7500 51° Northeast  Level FlightAware Approximate